Location: Ziano di Fiemme
(46.2833°N, 11.5833°E)
Time: 06:46:51
(UTC+00:00)

Daily predictions for brighter satellites

Satellite Brightness Start Highest point End
(mag) Time Altitude Azimuth Time Altitude Azimuth Time Altitude Azimuth
TELKOM 3 3.9 16:44:47 10° WNW 16:46:49 32° N 16:48:57 10° ENE
Landsat 5 3.7 16:45:26 10° N 16:49:17 65° WNW 16:53:03 10° SSW
H-2A R/B 3.1 16:46:32 10° ESE 16:50:30 24° ENE 16:54:35 10° N
ATLAS 5 CENTAUR R/B 3.6 16:47:53 10° WNW 16:50:59 19° NNW 16:54:24 10° NNE
NOSS 3-1 (C) 4.1 16:45:03 10° NW 16:52:21 62° NE 17:00:49 10° SE
CREW DRAGON DEMO-1 DEB 4.5 16:52:36 10° WNW 16:55:16 33° SW 16:57:54 10° SSE
Cosmos 2278 Rocket 3.5 16:53:54 10° SSE 16:57:58 21° E 17:02:03 10° NE
CZ-4B R/B 1.9 16:55:30 10° NNE 16:58:37 37° E 17:01:40 10° SSE
H-2A R/B 2.2 16:54:31 10° NNE 16:58:57 82° WNW 17:03:15 10° SSW
Cosmos 1602 Rocket 4.1 16:55:22 10° SSE 16:59:19 35° E 17:03:19 10° NNE
CZ-4C R/B 4.2 16:56:16 10° WNW 17:00:20 19° NNW 17:04:55 10° NNE
IRS-1C Rocket 4.4 16:55:39 10° SE 17:00:34 43° ENE 17:05:32 10° N
CZ-4B R/B 3.8 16:58:04 10° S 17:03:37 66° WSW 17:09:16 10° NNW
Cosmos 1818 4.1 16:59:19 10° SW 17:04:40 61° NW 17:10:06 10° NNE
YAOGAN 1 3.4 17:01:35 10° SE 17:05:14 28° ENE 17:08:55 10° N
SMAP 4.2 17:01:08 10° S 17:05:38 49° W 17:10:10 10° NNW
NOSS 2-1 (C) 3.1 17:02:51 10° SSW 17:06:08 53° SE 17:09:01 13° NE
MOS 1 Rocket 3.5 17:02:49 10° NNE 17:06:50 39° E 17:10:53 10° SSE
SJ 16-02 1.7 17:02:40 10° SSW 17:07:03 68° WNW 17:11:27 10° NNE
Cosmos 2112 Rocket 4.0 17:03:09 10° NNW 17:08:23 65° ENE 17:13:32 10° SSE
OE (NEXTSAT) 4.4 17:06:03 10° W 17:09:29 74° S 17:12:29 13° ESE
ERS-2 3.1 17:07:37 10° NE 17:10:47 27° E 17:13:55 10° SSE
Okean O Rocket 2.4 17:07:26 10° S 17:11:47 56° W 17:16:09 10° NNW
NOSS 2-1 (D) 2.9 17:08:43 10° SSW 17:12:02 63° SE 17:14:48 14° NE
USA 229 DEB 4.0 17:05:30 10° NW 17:12:41 60° NE 17:20:16 10° SE
USA 229 4.0 17:05:37 10° NW 17:12:47 59° NE 17:20:21 10° SE
Cosmos 1340 3.0 17:10:34 10° SSE 17:14:06 41° E 17:17:40 10° NNE
Cosmos 1328 4.1 17:12:25 10° SSE 17:16:12 42° E 17:19:59 10° NNE
Cosmos 1812 Rocket 3.6 17:13:42 10° N 17:18:01 53° ENE 17:22:16 10° SSE
Cosmos 990 Rocket 3.9 17:13:34 10° SSW 17:18:44 72° ESE 17:23:55 10° NNE
Okean-O 3.0 17:15:43 10° SE 17:19:51 39° ENE 17:23:59 10° N
Cosmos 1455 2.7 17:17:35 10° NNW 17:21:23 62° W 17:25:10 10° S
CSL-04 DEB 4.4 17:17:47 10° NNE 17:21:57 87° WNW 17:25:58 10° SSW
Helios 1A Rocket 3.6 17:20:12 10° SE 17:23:52 31° ENE 17:27:34 10° N
CZ-2C R/B 3.2 17:19:24 10° SSE 17:24:50 75° ENE 17:30:33 10° N
ARGOS 3.7 17:20:52 10° SE 17:25:40 34° ENE 17:30:29 10° N
SKYMED 2 3.5 17:21:34 10° NNE 17:25:57 78° ESE 17:30:16 10° S
CZ-2D R/B 3.1 17:22:38 10° SSE 17:26:29 85° ENE 17:30:20 10° NNW
USA 290 3.2 17:24:15 10° N 17:27:01 26° ENE 17:27:14 26° ENE
NOSS 3-1 (A) 4.1 17:20:58 10° NW 17:28:19 64° NE 17:36:53 10° SE
Lacrosse 5 4.1 17:27:38 10° WNW 17:31:48 26° SW 17:35:56 10° S
Cosmos 1939 Rocket 3.8 17:29:35 10° S 17:33:35 52° W 17:37:34 10° NNW
CZ-2C R/B 3.7 17:31:46 16° NE 17:34:58 25° E 17:39:33 10° SSE
Cosmos 1627 Rocket 4.4 17:29:04 10° S 17:35:11 66° E 17:41:26 10° NNE
SAR-Lupe-4 3.9 17:34:08 19° NE 17:36:21 43° E 17:39:45 10° S
Aureole 3 Rocket 2.3 17:40:22 10° N 17:43:31 71° E 17:47:21 10° SSE
Cosmos 1092 Rocket 4.0 17:39:28 10° S 17:45:40 86° W 17:51:51 10° N
Iridium 4 Rocket 3.4 17:41:50 10° N 17:47:21 77° E 17:52:20 10° S
Cosmos 858 Rocket 4.4 17:42:49 10° SSW 17:48:05 78° ESE 17:53:12 11° NNE
ISS -2.6 17:47:55 10° WNW 17:51:01 32° N 17:51:39 30° NNE
USA 234 4.1 17:47:42 21° NE 17:51:16 35° N 17:57:04 10° WNW
SAR-Lupe-1 3.9 17:50:40 24° NNE 17:52:44 69° ESE 17:56:19 10° S
Cosmos 2344 4.3 17:43:54 10° NW 17:53:12 79° NE 18:06:16 10° SE
CSL-04 Debris 4.2 17:48:06 10° SSE 17:53:21 57° ENE 17:58:38 10° N
Cosmos 405 3.0 17:52:22 10° NNW 17:55:55 80° W 17:59:25 10° S
Meteor 2-19 Rocket 4.4 17:51:10 10° S 17:57:17 70° E 18:03:26 10° NNE
SL-08 RB Rocket 4.0 17:56:52 37° E 17:57:44 41° ENE 18:01:57 10° N
DMSP B5D1-3 4.5 17:52:57 10° NNE 17:58:00 59° E 18:03:01 10° S
BREEZE-M DEB (TANK) 2.4 17:56:06 10° WNW 17:57:53 49° NNW 17:57:53 49° NNW
CZ-4 R/B 1.5 17:54:18 10° S 17:58:21 74° WSW 18:02:21 10° NNW
SJ-11-01 4.1 17:54:31 10° SSE 17:59:12 80° ENE 18:03:54 10° N
Cosmos 1833 Rocket 2.6 17:53:49 10° NNW 17:59:28 77° ENE 18:05:05 10° SSE
Cosmos 44 4.3 17:56:20 10° WSW 18:00:58 44° NW 18:04:50 16° NNE
Meteor 1-27 4.1 17:59:16 10° N 18:04:51 64° ENE 18:10:22 10° SSE
Cosmos 2292 Rocket 4.1 18:00:20 10° SSE 18:04:40 40° ESE 18:04:40 40° ESE
Cosmos 1898 Rocket 4.2 18:01:54 10° SW 18:07:03 54° WNW 18:12:11 10° NNE
NOSS 2-1 (E) 4.1 18:04:10 10° WSW 18:07:18 39° NW 18:08:25 29° N
COSMOS 2406 3.3 18:02:30 10° NNW 18:08:19 81° WSW 18:14:04 10° SSE
X-37B 1.1 18:07:28 10° W 18:10:23 56° SW 18:10:23 56° SW
COSMO-SKYMED 1 4.2 18:09:57 10° N 18:13:53 34° WNW 18:17:49 10° SW
Cosmos 1689 Rocket 2.9 18:14:21 46° WSW 18:14:21 46° WSW 18:16:43 10° SSW
Cosmos 2082 Rocket 2.2 18:09:15 10° NNW 18:14:55 58° ENE 18:16:36 42° ESE
Cosmos 372 Rocket 3.8 18:12:05 10° SSW 18:17:16 76° ESE 18:19:29 35° NNE
Cosmos 1758 Rocket 4.1 18:15:23 10° SSW 18:19:47 61° WNW 18:24:15 10° N
Cosmos 1048 Rocket 4.2 18:15:02 10° NNW 18:19:38 48° NE 18:19:38 48° NE
Cosmos-2242 3.4 18:18:02 10° NNW 18:22:17 61° W 18:26:32 10° S
Cosmos 2266 Rocket 4.1 18:20:01 10° SSE 18:26:00 49° E 18:26:00 49° E
Cosmos 1346 Rocket 3.0 18:23:10 10° SSW 18:27:05 66° WNW 18:27:48 53° NNW
H-2A R/B 2.8 18:24:42 10° S 18:29:35 51° W 18:34:39 10° NNW
CZ-4B R/B 4.4 18:28:41 10° NNW 18:30:29 14° WNW 18:32:16 10° W
Meteor 2-2 Rocket 4.5 18:25:01 10° N 18:30:19 51° NE 18:30:19 51° NE
Cosmos 1809 Rocket 4.3 18:27:10 10° S 18:33:09 61° E 18:35:12 41° NNE
Cosmos 1417 Rocket 4.5 18:27:56 10° N 18:34:11 84° W 18:40:28 10° S
CSL-04 Rocket 3.9 18:31:42 10° S 18:37:06 69° WSW 18:42:37 10° NNW
Cosmos 2298 Rocket 4.3 18:32:01 10° S 18:36:10 51° SSE 18:36:10 51° SSE
Cosmos 1553 Rocket 4.3 18:31:18 10° NNW 18:37:40 70° W 18:43:55 10° S
ATLAS 5 CENTAUR R/B 4.3 18:36:16 10° NNW 18:37:41 11° N 18:38:05 11° N
Cosmos 44 Rocket 4.3 18:35:53 10° SSW 18:38:48 34° S 18:38:48 34° S
YAOGAN 1 4.3 18:37:23 10° SSW 18:41:15 31° W 18:45:08 10° NNW
Cosmos 2278 Rocket 2.5 18:35:51 10° SW 18:41:29 66° WNW 18:44:01 33° N
ERS-2 4.4 18:41:50 13° NNW 18:44:13 23° WNW 18:47:06 10° WSW
CZ-4C R/B 4.3 18:46:53 10° NNW 18:51:28 20° NNE 18:51:43 20° NNE
CZ-3B R/B 3.7 18:48:11 10° WNW 18:51:42 47° SW 19:03:43 10° SSE
USA 267 4.4 19:00:49 28° S 19:00:49 28° S 19:04:17 10° SSW
Cosmos 1655 Rocket 4.0 18:52:37 10° SSW 18:58:51 80° W 19:05:07 10° N
S3M 4.3 18:56:56 10° NNW 19:02:58 63° W 19:09:00 10° S
CZ-2C R/B 3.4 19:13:15 33° NNW 19:15:31 52° WNW 19:20:57 10° SW
ATLAS 2AS CENTAUR R/B 4.4 19:22:15 10° NW 19:27:37 23° N 19:27:37 23° N
USA 234 4.0 19:35:03 44° NNW 19:35:03 44° NNW 19:39:51 10° NW
Cosmos 2082 Rocket 4.2 19:54:06 10° NW 19:58:32 24° W 19:58:32 24° W
